Tracking 19832 objects as of 24-Aug-2019
HD Live streaming from Space Station
objects crossing your sky now

COSMOS 2251 DEB

Track COSMOS 2251 DEB now!
10-day predictions


NORAD ID: 33907
Int'l Code: 1993-036DL
Perigee: 754.7 km
Apogee: 977.5 km
Inclination: 74.1 °
Period: 102.1 minutes
Semi major axis: 7237 km
RCS: 0.033 m2 (small)
Launch date: June 16, 1993
Source: Commonwealth of Independent States (former USSR) (CIS)
Launch site: PLESETSK MISSILE AND SPACE COMPLEX (PKMTR)

Note: This is SATELLITE DEBRIS
aabbcc
Your satellite tracking list
Your tracking list is empty




NASA's NSSDC Master Catalog

Two Line Element Set (TLE):
1 33907U 93036DL  19236.22272878  .00000383  00000-0  20603-3 0  9990
2 33907  74.0595 157.9531 0153917  59.9878  55.7714 14.10109334539919
Source of the keplerian elements: AFSPC